Location: Sungai Bunut
(2.6333°N, 113.7333°E)
Time: 17:40:04
(UTC+00:00)

Tiros 1 despin weight - Pass Details

Date: 03 December 2023
Orbit: 581 x 624 km, 48.2° (Epoch: 03 March)

Event Time Altitude Azimuth Distance (km) Brightness Sun altitude
Rises 20:47:04 0° 289° (WNW) 2,845 - -21.3°
Reaches altitude 10° 20:50:09 10° 267° (W) 1,955 - -20.6°
Maximum altitude 20:52:50 16° 230° (SW) 1,634 - -20.0°
Exits shadow 20:53:12 15° 225° (SW) 1,642 ? -19.9°
Drops below altitude 10° 20:55:32 10° 194° (SSW) 1,976 ? -19.4°
Sets 20:58:42 0° 171° (S) 2,892 ? -18.6°
